STARLINK-1595, 46159

Orbit data source: Space-Track

STARLINK-1595, 46159 is a payload satellite owned by SpaceX/Seattle (US) in LEO that was launched on Tue, 18 Aug 2020 UTC via an FALCON 9 launch vehicle from the Air Force Eastern Test Range (AFETR). Payload-class satellites include a variety of spacecraft equipped with specific instruments for various scientific and technological missions. These include communications satellites like Starlink; space stations such as the ISS; scientific satellites like the Hubble; Earth observation satellites from companies like Planet Labs, Umbra, and HawkEye 360; GPS; miniature CubeSats for education and research; and military/defense satellites.

Loading next visibility...
Identifier
46159, 2020-057AU
Orbit
LEO
Country
Flag of USUS
Related business
Manufacturer
SpaceX/Seattle
Mission
Operational Commercial Communications
Bus & Motor
STARLINK, Unknown motor
Mass
260 kg wet, ~248 kg dry
Launch date (UTC)
2020-08-18 (5 years ago)
Launch vehicle
FALCON 9
Launch site
Air Force Eastern Test Range (AFETR)
Object type
Payload
Rocket body
Debris
Shape & HBR
Box + 1 Pan, 10.1 m
Radar Cross Section
13.562 m², Large (>1 m²)

Expand to show TLE details & history
Last TLE update: 6 hours ago

TLE from 6 hours ago
0 STARLINK-1595
1 46159U 20057AU  25355.25001156  .01674794  00000-0  64525-1 0  9990
2 46159  53.0551 308.3042 0001558  59.3073  38.3621 15.22446623  5780
Epoch: 2025-12-21T06:00Z
TLE epoch observation values (Epoch: 2025-12-21T06:00:00.998Z)
Latitude
52.52839°
Longitude
-129.10483°
Altitude
504.013 km
Speed
7.619 km/s
True Right ascension
03h 23m 51s
True Declination
52° 21' 22"
Sunlit
Object was in full shadow at epoch
Visualization orbit readout
Latitude
Unknown
Longitude
Unknown
Altitude
Unknown
Speed
Unknown
Apparent Right ascension
Unknown
Apparent Declination
Unknown
Sunlit
N/A
Visualization observer readout
Local Sidereal Time
10:54:42
Azimuth
Unknown
Elevation
Unknown
Doppler factor
Unknown
Orbital elements
Apogee altitude
499.807 km
Perigee altitude
497.665 km
Semi-major axis
6,876.873 km
Eccentricity
0.00016
Inclination
53.0551°
RAAN
308.3042°
Arg. of periapsis
59.3073°
True anomaly
38.37318°
Mean anomaly
38.3621°
Eccentric anomaly
38.36764°
Mean motion
3.80589 °/min
Orbital period
94.59 mins
BSTAR
0.064525
Loading maneuver chart data...
Computing Atmospheric mass density...
Loading historical data...
Loading historical data...
Loading historical data...
Loading historical data...
Loading historical data...
Loading historical data...
Loading historical data...

Documentation

Showing up to 5 results
|